This is the latest recevied weather packets stored in our database for station/object KK7KRZ. If no packets are shown the sender has not sent any weather packets the latest 1 day(s).
| Time | Temp. | Humidity | Pressure | Rain* | Wind** | Luminosity | Snow |
|---|---|---|---|---|---|---|---|
| 1778014954 | 17.22° C | 75% | 1016.2 hPa | 0 mm | 0.45 m/s, 160° | 177 W/m² | - |
| 1778014651 | 17.22° C | 73% | 1016.1 hPa | 0 mm | 0.89 m/s, 154° | 180 W/m² | - |
| 1778014350 | 16.67° C | 76% | 1016 hPa | 0 mm | 0 m/s | 167 W/m² | - |
| 1778014046 | 16.67° C | 77% | 1016.3 hPa | 0 mm | 0 m/s | 156 W/m² | - |
| 1778013744 | 16.67° C | 76% | 1016.2 hPa | 0 mm | 0.45 m/s, 159° | 155 W/m² | - |
| 1778013441 | 16.67° C | 76% | 1016.1 hPa | 0 mm | 0 m/s | 161 W/m² | - |
| 1778013138 | 16.67° C | 74% | 1016.4 hPa | 0 mm | 0.45 m/s, 173° | 157 W/m² | - |
| 1778012833 | 16.67° C | 74% | 1016.4 hPa | 0 mm | 0 m/s | 157 W/m² | - |
| 1778012530 | 17.22° C | 74% | 1016.5 hPa | 0 mm | 0 m/s | 178 W/m² | - |
| 1778012226 | 16.67° C | 75% | 1016.4 hPa | 0 mm | 0 m/s | 189 W/m² | - |
| 1778011927 | 16.67° C | 76% | 1016.3 hPa | 0 mm | 0 m/s | 177 W/m² | - |
| 1778011622 | 16.67° C | 74% | 1016.3 hPa | 0 mm | 0.45 m/s, 119° | 177 W/m² | - |
| 1778011319 | 16.11° C | 75% | 1016.3 hPa | 0 mm | 0 m/s | 180 W/m² | - |
| 1778011014 | 16.11° C | 74% | 1016.7 hPa | 0 mm | 0.45 m/s, 82° | 177 W/m² | - |
| 1778010712 | 16.11° C | 77% | 1016.3 hPa | 0 mm | 0 m/s | 175 W/m² | - |
| 1778010409 | 16.11° C | 77% | 1016.5 hPa | 0 mm | 0.45 m/s, 182° | 165 W/m² | - |
| 1778010105 | 16.11° C | 77% | 1016.7 hPa | 0 mm | 0 m/s | 153 W/m² | - |
| 1778009802 | 16.11° C | 77% | 1016.5 hPa | 0 mm | 0.45 m/s, 152° | 157 W/m² | - |
| 1778009499 | 15.56° C | 77% | 1016.2 hPa | 0 mm | 0 m/s | 155 W/m² | - |
| 1778009198 | 15.56° C | 77% | 1016.6 hPa | 0 mm | 0 m/s | 141 W/m² | - |
| 1778008894 | 15.56° C | 78% | 1016.5 hPa | 0 mm | 0 m/s | 135 W/m² | - |
| 1778008593 | 15.56° C | 79% | 1016.5 hPa | 0 mm | 0 m/s | 127 W/m² | - |
| 1778008291 | 15° C | 79% | 1016.6 hPa | 0 mm | 0.89 m/s, 291° | 122 W/m² | - |
| 1778007986 | 15° C | 79% | 1016.5 hPa | 0 mm | 0 m/s | 124 W/m² | - |
| 1778007681 | 15° C | 79% | 1016.6 hPa | 0 mm | 0.45 m/s, 63° | 125 W/m² | - |
* Rain latest hour (hover to see other rain measurements)
** Current wind speed in m/s (hover to see current wind gust speed)